Date String (YYYY-MM-DD hh:mm:ss) UTC,Instrument flags,Ambient pressure (hPa),Sample flow (lpm),Bypass flow (lpm),Sample temperature (°C),Ambient temperature (°C),ASC tube jacket temperature (°C),LED temperature (°C),Box temperature (°C),Sample RH (%),Span deviation,Mass concentration (μg/m³),Mass concentration (μg/m³),Mass concentration (μg/m³)
DateTimeUTC,F1_M11,P_M11,Q1_M11,Q2_M11,T1_M11,T2_M11,T3_M11,T4_M11,T5_M11,U1_M11,ZSPAN_M11,X2_M11,X0_M11,X1_M11
2023-04-21 20:00:00,,0828.9,4.99,0.00,23.5,22.1,00.0,31.7,24.9,08.5,0000.0,0002.86,0006.89,0001.67
2023-04-21 20:01:00,,0828.8,4.99,0.00,23.4,22.0,00.0,31.7,24.9,08.7,0000.0,0002.88,0007.09,0001.67
2023-04-21 20:02:00,,0828.8,4.99,0.00,23.4,22.0,00.0,31.7,24.9,08.6,0000.0,0002.87,0007.07,0001.65
2023-04-21 20:03:00,,0828.7,5.01,0.00,23.4,21.9,00.0,31.7,24.8,08.5,0000.0,0002.83,0006.95,0001.63
2023-04-21 20:04:00,,0828.8,5.00,0.00,23.4,21.8,00.0,31.7,24.8,08.6,0000.0,0002.85,0006.95,0001.64
2023-04-21 20:05:00,,0828.7,4.99,0.00,23.3,21.8,00.0,31.7,24.8,08.6,0000.0,0002.84,0006.78,0001.63
2023-04-21 20:06:00,,0828.8,4.99,0.00,23.3,21.8,00.0,31.7,24.8,08.6,0000.0,0002.77,0005.58,0001.63
2023-04-21 20:07:00,,0828.8,5.02,0.00,23.3,21.8,00.0,31.7,24.8,08.7,0000.0,0002.80,0005.68,0001.63
2023-04-21 20:08:00,,0828.8,5.00,0.00,23.3,21.8,00.0,31.7,24.8,08.8,0000.0,0002.81,0005.44,0001.64
2023-04-21 20:09:00,,0828.8,4.99,0.00,23.3,21.9,00.0,31.7,24.9,09.0,0000.0,0002.80,0005.14,0001.64
2023-04-21 20:10:00,,0828.8,5.00,0.00,23.3,21.9,00.0,31.7,24.8,09.0,0000.0,0002.86,0005.38,0001.63
2023-04-21 20:11:00,,0828.8,5.00,0.00,23.3,21.9,00.0,31.7,24.9,09.0,0000.0,0002.86,0006.23,0001.62
2023-04-21 20:12:00,,0828.7,4.99,0.00,23.3,21.9,00.0,31.7,24.9,09.0,0000.0,0002.82,0006.87,0001.59
2023-04-21 20:13:00,,0828.7,5.00,0.00,23.3,21.9,00.0,31.7,24.9,08.9,0000.0,0002.81,0007.25,0001.57
2023-04-21 20:14:00,,0828.8,5.01,0.00,23.3,21.9,00.0,31.7,24.9,09.0,0000.0,0002.76,0007.69,0001.56
2023-04-21 20:15:00,,0828.7,5.01,0.00,23.3,21.9,00.0,31.7,24.9,09.2,0000.0,0002.79,0007.75,0001.53
2023-04-21 20:16:00,,0828.8,5.01,0.00,23.3,21.8,00.0,31.7,24.9,09.0,0000.0,0002.84,0007.88,0001.52
2023-04-21 20:17:00,,0828.7,5.00,0.00,23.3,21.8,00.0,31.7,24.9,09.0,0000.0,0002.87,0007.99,0001.52
2023-04-21 20:18:00,,0828.7,5.00,0.00,23.3,21.8,00.0,31.7,24.9,09.1,0000.0,0002.80,0008.00,0001.51
2023-04-21 20:19:00,,0828.6,4.99,0.00,23.3,21.8,00.0,31.7,24.9,09.1,0000.0,0002.78,0008.06,0001.49
2023-04-21 20:20:00,,0828.6,5.00,0.00,23.3,21.8,00.0,31.7,24.8,09.2,0000.0,0002.70,0008.01,0001.47
2023-04-21 20:21:00,,0828.6,4.99,0.00,23.3,21.8,00.0,31.7,24.8,09.3,0000.0,0002.63,0007.92,0001.48
2023-04-21 20:22:00,,0828.6,5.00,0.00,23.3,21.8,00.0,31.7,24.8,09.4,0000.0,0002.69,0007.41,0001.48
2023-04-21 20:23:00,,0828.6,5.00,0.00,23.3,21.8,00.0,31.7,24.8,09.4,0000.0,0002.69,0007.09,0001.49
2023-04-21 20:24:00,,0828.6,5.00,0.00,23.3,21.8,00.0,31.7,24.8,09.3,0000.0,0002.63,0006.69,0001.50
2023-04-21 20:25:00,,0828.7,5.00,0.00,23.3,21.8,00.0,31.7,24.8,09.1,0000.0,0002.62,0006.00,0001.51
2023-04-21 20:26:00,,0828.6,4.99,0.00,23.3,21.8,00.0,31.7,24.8,09.4,0000.0,0002.54,0006.24,0001.52
2023-04-21 20:27:00,,0828.6,5.00,0.00,23.3,21.8,00.0,31.6,24.8,09.4,0000.0,0002.46,0006.94,0001.52
2023-04-21 20:28:00,,0828.6,4.99,0.00,23.3,21.8,00.0,31.6,24.8,09.5,0000.0,0002.46,0007.22,0001.53
2023-04-21 20:29:00,,0828.6,4.99,0.00,23.3,21.8,00.0,31.6,24.8,09.5,0000.0,0002.50,0007.20,0001.53
2023-04-21 20:30:00,,0828.7,5.00,0.00,23.3,21.8,00.0,31.6,24.8,09.6,0000.0,0002.46,0007.02,0001.53
2023-04-21 20:31:00,,0828.7,5.00,0.00,23.3,21.8,00.0,31.6,24.8,09.5,0000.0,0002.45,0007.03,0001.52
2023-04-21 20:32:00,,0828.7,5.00,0.00,23.2,21.8,00.0,31.6,24.7,09.4,0000.0,0002.41,0006.94,0001.51
2023-04-21 20:33:00,,0828.7,5.00,0.00,23.2,21.7,00.0,31.6,24.7,09.3,0000.0,0002.39,0006.88,0001.50
2023-04-21 20:34:00,,0828.7,4.99,0.00,23.2,21.7,00.0,31.6,24.7,09.4,0000.0,0002.40,0006.70,0001.51
2023-04-21 20:35:00,,0828.8,5.01,0.00,23.2,21.6,00.0,31.6,24.6,09.4,0000.0,0002.50,0006.59,0001.52
2023-04-21 20:36:00,,0828.7,5.00,0.00,23.2,21.6,00.0,31.6,24.6,09.5,0000.0,0002.57,0006.76,0001.52
2023-04-21 20:37:00,,0828.6,5.01,0.00,23.2,21.6,00.0,31.6,24.7,08.7,0000.0,0002.67,0006.55,0001.52
2023-04-21 20:38:00,,0828.7,5.00,0.00,23.2,21.6,00.0,31.6,24.7,08.5,0000.0,0002.74,0005.72,0001.56
2023-04-21 20:39:00,,0828.6,5.01,0.00,23.2,21.7,00.0,31.6,24.7,08.6,0000.0,0002.78,0005.44,0001.57
2023-04-21 20:40:00,,0828.6,5.00,0.00,23.2,21.7,00.0,31.6,24.7,08.8,0000.0,0002.85,0006.16,0001.57
2023-04-21 20:41:00,,0828.6,5.01,0.00,23.2,21.7,00.0,31.6,24.8,08.8,0000.0,0002.92,0006.47,0001.57
2023-04-21 20:42:00,,0828.6,4.99,0.00,23.2,21.7,00.0,31.6,24.8,08.7,0000.0,0002.96,0006.54,0001.58
2023-04-21 20:43:00,,0828.5,4.99,0.00,23.2,21.8,00.0,31.6,24.8,08.7,0000.0,0003.06,0006.73,0001.60
2023-04-21 20:44:00,,0828.6,5.00,0.00,23.2,21.8,00.0,31.6,24.8,08.7,0000.0,0003.06,0006.87,0001.60
2023-04-21 20:45:00,,0828.6,5.00,0.00,23.2,21.8,00.0,31.6,24.8,08.7,0000.0,0003.10,0006.95,0001.60
2023-04-21 20:46:00,,0828.5,5.01,0.00,23.2,21.8,00.0,31.6,24.8,08.6,0000.0,0003.05,0006.74,0001.58
2023-04-21 20:47:00,,0828.5,5.00,0.00,23.2,21.8,00.0,31.6,24.8,08.7,0000.0,0003.03,0006.79,0001.59
2023-04-21 20:48:00,,0828.5,5.01,0.00,23.2,21.8,00.0,31.6,24.8,08.7,0000.0,0002.96,0006.80,0001.58
2023-04-21 20:49:00,,0828.5,5.00,0.00,23.2,21.8,00.0,31.6,24.8,08.8,0000.0,0002.92,0007.05,0001.55
2023-04-21 20:50:00,,0828.5,5.01,0.00,23.2,21.8,00.0,31.6,24.8,08.9,0000.0,0002.87,0006.93,0001.53
2023-04-21 20:51:00,,0828.4,4.98,0.00,23.3,21.8,00.0,31.6,24.8,08.9,0000.0,0002.81,0006.22,0001.51
2023-04-21 20:52:00,,0828.4,5.01,0.00,23.3,21.8,00.0,31.6,24.8,08.7,0000.0,0002.78,0006.03,0001.50
2023-04-21 20:53:00,,0828.4,5.01,0.00,23.3,21.8,00.0,31.6,24.8,08.9,0000.0,0002.78,0006.11,0001.50
2023-04-21 20:54:00,,0828.5,5.01,0.00,23.3,21.8,00.0,31.6,24.8,08.6,0000.0,0002.69,0005.91,0001.48
2023-04-21 20:55:00,,0828.6,5.00,0.00,23.3,21.8,00.0,31.6,24.8,08.6,0000.0,0002.69,0005.79,0001.48
2023-04-21 20:56:00,,0828.5,5.00,0.00,23.3,21.8,00.0,31.6,24.8,08.7,0000.0,0002.61,0005.56,0001.46
2023-04-21 20:57:00,,0828.5,4.99,0.00,23.3,21.8,00.0,31.6,24.8,08.7,0000.0,0002.60,0005.53,0001.44
2023-04-21 20:58:00,,0828.4,5.00,0.00,23.3,21.8,00.0,31.6,24.8,08.9,0000.0,0002.57,0005.42,0001.42
2023-04-21 20:59:00,,0828.5,5.01,0.00,23.3,21.8,00.0,31.6,24.8,08.7,0000.0,0002.60,0005.39,0001.41
